Sponsored Ads

Tom Brady

2000 Upper Deck Gold Reserve

Thomas Edward Patrick “Tom” Brady, Jr. (August 3, 1977-) is an NFL quarterback who has spent the bulk of his professional career with the New England Patriots. New England selected Brady in the 6th round of the 2000 NFL Draft out of the University of Michigan. In his career he has taken his teams to nine Super Bowls, winning seven of them. He also received five Super Bowl MVP awards; the only player to do so. In 2007, he led the Pats to the first undefeated regular season since the institution of the 16-game schedule, but lost to the New York Giants in Super Bowl XLII. That same year (2007), he became the first quarterback to throw 50 touchdowns in the regular season, since eclipsed by Denver Broncos Peyton Manning in 2013 with 55. Following their triumphant 2014 season, the Patriots and specifically Brady were investigated for possibly deflating footballs during the AFC Championship Game against the Indianapolis Colts. Brady and the Pats were fined and suspended, although he did not serve the four-game suspension until the 2016 season due to the appeals process. The Patriots lost to Peyton Manning and the Denver Broncos in the 2015 AFC Championship Game, and then followed up the next season with a victory over the Atlanta Falcons in Super Bowl LI. Two years later he led the Patriots to victory is Super Bowl LIII, a 13-3 victory over the Los Angeles Rams. 

Tom Brady left the Patriots following the 2019 season. It was a league-shattering split from head coach Bill Belichick, with whom Brady had enjoyed more success than any quarterback-coach duo before them. He signed a two-year contract with the Tampa Bay Buccaneers, and convinced his former Patriots tight end, Rob Gronkowski, to come out of retirement and join him. The two led their new team to an 11-5 regular season record and a spot in the NFC Wild Card Game. The Bucs swept through the postseason and ended Brady's storybook season with a 31-9 victory over the Kansas City Chiefs in Super Bowl LV. It was Brady's seventh Super Bowl title, more than any other player in NFL history. He played one final season in 2021, and led Tampa Bay to a 13-4 record in the NFL's first 17-game season, but lost a 30-27 contest to the Los Angeles Rams in the NFL Divisional Game.

The legendary quarterback announced his retirement shortly after his 2021 season ended. While there is much discussion about the GOAT in different sports and various positions, there is little question that Tom Brady is the greatest quarterback of all time. He retired as the NFL's all-time leader with 7,263 completions, 84,520 passing yards, 624 touchdown passes 243 regular season wins and seven Super Bowl victories. He was named the NFL's Most Valuable Player three times, Offensive Player of the Year twice and a member of the NFL's 2000s and 2010s All-Decade Team, and the NFL 100th Anniversary All-Time Team. Perhaps most impressively, in his 22nd-and-final NFL season, at 44 years of age, Brady led the league in pass attempts, completions, yards and touchdowns.

Condition Census

Pos Grade Thumbnail Pedigree and History
1 GEM MT 10 (19)

Prices By Grade

2000 UPPER DECK GOLD RESERVE 215 TOM BRADY

Grade Most Recent Price Average Price PSA Price Population POP Higher
GEM - MT 10 $12,999.00 $22,549.50 $19,000.00 19
MINT 9 $2,474.00 $3,036.98 $3,150.00 115 19
NM - MT 8 $1,025.00 $1,313.66 $1,245.00 86 143
NM 7 $1,091.66 20 231
EX - MT 6 $456.51 21 252
EX 5 $461.25 10 273
VG - EX 4 1 283
VG 3 284
GOOD 2 284
FR 1.5 284
PR 1 284
Auth 1 284

Auction Prices Realized

Date Price Grade Lot # Auction House Auction/Seller Type Cert
10/19/2022 $1,202 8.5 134275676665 eBay kvboles19 Auction 46722944
10/11/2022 $1,025 8 175437606877 eBay cards2cars Auction 45082211
09/23/2022 $1,205 8 374256025482 eBay dcsports87 Auction 43303664
09/19/2022 $2,474 9 265874758601 eBay 4_sharp_corners Auction 64481686
09/06/2022 $1,476 8 363959256026 eBay breakers.rowe Auction 61167392
05/13/2022 $1,260 8 52565 Heritage Auctions Sports Catalog Auction Auction 63639080
03/17/2022 $12,999 10 373968530426 eBay probstein123 Auction 12460675
03/12/2022 $1,526 8 393975073629 eBay bigboydsportscards3 Auction 63720981
12/13/2021 $32,100 10 363642586880 eBay 4_sharp_corners Auction 26450736
12/08/2021 $3,600 9 165210221322 eBay pristinemjsports Auction 27611079
10/14/2021 $3,166 9 384431962367 eBay probstein123 Auction 04528019
08/30/2021 $1,152 8 384341865304 eBay 4_sharp_corners Auction 30696927
08/12/2021 $2,279 9 224560199484 eBay pwcc_vault Auction 63408045
07/29/2021 $2,138 9 224542781728 eBay pwcc_vault Auction 81891677
07/26/2021 $12,600 10 54948 Heritage Auctions Summer Sports Card Catalog Auction Auction 21993080
07/12/2021 $461 5 694 Goldin Auctions July Monthly Card Auction ending July 10 Auction 63377308
05/03/2021 $2,775 9 363368314458 eBay 4_sharp_corners Auction 11521389
04/19/2021 $945 6.5 224423785282 eBay camerofor1 Auction 55042542
04/12/2021 $4,000 9 224418442543 eBay pwcc_vault Best Offer 55390125
02/27/2021 $2,136 8.5 265061437547 eBay curbz340 Auction 29021208
02/26/2021 $1,386 8 294022384802 eBay ponono Auction 44157228
02/25/2021 $1,900 8.5 154329474152 eBay ftorres4 Best Offer 46722944
02/08/2021 $2,500 8 154308477834 eBay blacknblue63 Best Offer 44157228
02/06/2021 $1,700 8 254852713466 eBay tylert232001 Best Offer 27076694
01/29/2021 $1,092 7 233869098007 eBay knjmueller Auction 49978240
01/26/2021 $4,950 9 143919300790 eBay pwcc_auctions Auction 27943981
01/25/2021 $1,350 8 273768103483 eBay 42253 Best Offer 41089335
01/07/2021 $950 8 133630610566 eBay kvboles19 Best Offer 27377652
12/13/2020 $4,440 10 58604 Heritage Auctions Fall Sports Collectibles Catalog Auction - Dallas Auction 18634748
11/06/2020 $2,020 9 164489122067 eBay pristinemjsports Best Offer 27943981
11/05/2020 $1,499 9 203158234129 eBay sportcardauctionscom Auction 49863422
11/01/2020 $850 8 264907922495 eBay autographs-for-sale Best Offer 27377652
10/26/2020 $1,580 9 143789474391 eBay pwcc_auctions Auction 27943981
09/19/2020 $600 8 363104177613 eBay jonesd-2 Auction 27377652
09/16/2020 $1,375 9 114398369621 eBay 1993usmid-amchamp Auction 27611079
09/04/2020 $6,376 10 283992035621 eBay cards2see Auction 47262583
08/27/2020 $1,550 9 154051546688 eBay jared1223 Best Offer 24535647
08/27/2020 $1,537 9 402364870860 eBay pwcc_auctions Auction 29032379
08/18/2020 $1,376 9 174389624016 eBay lopezn1981 Auction 41986297
08/06/2020 $650 8 353104115484 eBay baseballca-77 Buy It Now 44047071
07/11/2020 $457 6 274417686351 eBay philly1776 Auction 44849829
07/08/2020 $633 8 363035812405 eBay probstein123 Auction 45761186
06/28/2020 $4,100 10 333637601378 eBay sportcardauctionscom Buy It Now 47262583
05/29/2020 $1,150 9 324181882365 eBay backtobackcards Best Offer 42582255
05/21/2020 $463 6 274365376254 eBay philly1776 Auction 44849829
05/04/2020 $750 9 303532548291 eBay captainludenburgh Buy It Now 28844099
04/27/2020 $675 8 143590663182 eBay cardboard_dynamite Buy It Now 43306016
04/27/2020 $810 9 254467694640 eBay autographs-for-sale Buy It Now 41973522
04/27/2020 $436 8 353053213616 eBay pwcc_auctions Auction 43303664
04/15/2020 $3,499 10 293144910114 eBay bigboydsportscards3 Buy It Now 26450736
02/26/2020 $408 8 283789054971 eBay rstste-d38wm0qd Auction 44688102
02/18/2020 $619 9 392682161551 eBay bigboydsportscards3 Auction 44617140
11/21/2019 $446 8 401955457379 eBay pwcc_auctions Auction 43240924
08/04/2019 $775 9 303237277419 eBay ericthayer5011 Auction 41986297
07/07/2019 $109 6 333253002772 eBay pestamps2015 Auction 43508395
05/20/2019 $400 9 362651130040 eBay mvbb2018 Auction 26468042
01/28/2019 $800 9 312444823692 eBay itz_a_no_brainer Best Offer 42981390
01/24/2019 $2,713 10 401686486585 eBay pwcc_auctions Auction 18634748
01/20/2019 $800 9 273430009043 eBay autographs-for-sale Best Offer 26842701
01/09/2019 $631 9 183617981890 eBay ballgame643 Auction 41782068
11/15/2018 $625 9 192722494077 eBay missiejewel Buy It Now 20354216
08/30/2018 $536 9 142911757900 eBay pwcc_auctions Auction 27377728
08/28/2018 $600 9 113191071021 eBay cardmarketempire1 Best Offer 41973522
08/26/2018 $341 8 142907874297 eBay pwcc_auctions Auction 28908069
08/16/2018 $500 9 372396816136 eBay probstein123 Auction 28893045
08/12/2018 $1,700 10 382535704246 eBay probstein123 Auction 20883197
07/23/2018 $580 9 352403990906 eBay pwcc_auctions Auction 26842701
07/19/2018 $328 8 362384198156 eBay kenmorecollectibles Auction 41234488
05/14/2018 $510 9 362313539907 eBay probstein123 Auction 29032379
04/12/2018 $1,550 Auth 323205754370 eBay megasunomi Best Offer 25286153
03/27/2018 $571 9 112875439624 eBay thickwaistedtave Auction 28943019
02/18/2018 $504 9 401490384416 eBay pwcc_auctions Auction 28161599
02/09/2018 $769 9 969 Huggins and Scott Auctions February 2018 Auction Auction 28599851
02/01/2018 $2,500 10 132489844147 eBay ohiobuckeyesportsnut Best Offer 26450736
01/31/2018 $637 9 362222942078 eBay probstein123 Auction 20354216
01/27/2018 $1,500 Auth 302319304109 eBay x-men94 Buy It Now 25286153
12/06/2017 $510 9 302518219675 eBay ereeves1011eric Buy It Now 26975652
11/26/2017 $500 9 162744088298 eBay thecardboardcollective Best Offer 28251876
11/08/2017 $496 9 372123576967 eBay probstein123 Auction 28161599
10/22/2017 $560 9 132365130657 eBay lcmcollectibles Auction 27377728
08/07/2017 $600 9 372033047113 eBay 247cards Best Offer 27611079
07/30/2017 $405 9 222593298955 eBay cardess Auction 26975652
06/05/2017 $511 9 152562534986 eBay rookiesonly99 Auction 27377728
05/21/2017 $470 9 142383398134 eBay legendsauctionhouse Auction 26468042
05/18/2017 $641 9 352051998878 eBay pwcc_auctions Auction 27188237
05/16/2017 $286 8 222508110830 eBay cardess Auction 07237432
04/25/2017 $208 7 222482355214 eBay cardess Auction 27145175
04/16/2017 $277 8 262926714021 eBay buddysbaseball Auction 07237432
04/08/2017 $531 Auth 322467258197 eBay minted_morris Auction 25286153
03/27/2017 $457 9 371898192025 eBay probstein123 Auction 26975652
03/22/2017 $276 8 322455225755 eBay cardess Auction 26878523
03/08/2017 $1,282 10 201835077985 eBay missiejewel Auction 18634748
02/23/2017 $287 8 371869062924 eBay probstein123 Auction 25151958
02/16/2017 $1,025 10 201813619900 eBay missiejewel Auction 18634748
01/28/2017 $371 9 302204185633 eBay ereeves1011eric Auction 24535647
12/29/2016 $676 10 201756802132 eBay mad*kardz Auction 26450736
09/25/2016 $128 9 142118692026 eBay pwcc_auctions Auction 25900168
Sponsored Ads